Skip Page Navigation
NASA JPL Caltech
NASA Logo - Jet Propulsion Laboratory + View the NASA Portal
+ Center for Near-Earth Object Studies
JPL Home Earth Solar System Stars & Galaxies Technology
JPL Solar System Dynamics
BODIES ORBITS EPHEMERIDES TOOLS PHYSICAL DATA DISCOVERY FAQ SITE MAP
IMPORTANT: The SSD Announcement email list is now available. Major changes are coming in the near future, including possible hostname and/or URL changes. To be notified of such changes, subscribe to this email list.

Please visit this page for more details.


JPL Small-Body Database Browser
Search: [ help ]  
183440 (2003 AW82)
Classification: Main-belt Asteroid          SPK-ID: 2183440
Ephemeris | Orbit Diagram | Orbital Elements | Mission Design | Physical Parameters | Discovery Circumstances ]

[ show orbit diagram ]
Orbital Elements at Epoch 2458600.5 (2019-Apr-27.0) TDB
Reference: JPL 11 (heliocentric ecliptic J2000)
 Element Value Uncertainty (1-sigma)   Units 
e .081155446128406 5.9081e-08  
a 2.704815487124044 2.2108e-08 au
q 2.485304979571471 1.5728e-07 au
i 3.616373069104405 5.4569e-06 deg
node 113.8491322844308 9.9194e-05 deg
peri 68.97100303348478 0.00010452 deg
M 200.455946200038 3.4908e-05 deg
tp 2459320.583758384602
(2021-Apr-16.08375838)
0.00016098 TDB
period 1624.81864315346
4.45
1.9921e-05
5.454e-08
d
yr
n .2215631889238477 2.7165e-09 deg/d
Q 2.924325994676618 2.3902e-08 au
  Orbit Determination Parameters
   # obs. used (total)      324  
   data-arc span      6170 days (16.89 yr)  
   first obs. used      2001-10-24  
   last obs. used      2018-09-15  
   planetary ephem.      DE431  
   SB-pert. ephem.      SB431-N16  
   condition code      0  
   norm. resid. RMS      .52849  
   source      ORB  
   producer      Otto Matic  
   solution date      2018-Oct-03 11:59:51  

Additional Information
 Earth MOID = 1.49096 au 
 Jupiter MOID = 2.03861 au 
 T_jup = 3.358 
[ show covariance matrix ]

Ephemeris | Orbit Diagram | Orbital Elements | Mission Design | Physical Parameters | Discovery Circumstances ]

Physical Parameter Table
Parameter Symbol Value Units Sigma Reference Notes
absolute magnitude H 16.0   n/a MPO412995  

183440 (2003 AW82)          Discovered 2003-Jan-08 by Bickel, W. at Bergisch Gladbach
Reference: 20080420/Numbers.arcLast Updated: 2008-04-23

Alternate Designations
 2003 AW82 = 2001 WP49 
Ephemeris | Orbit Diagram | Orbital Elements | Mission Design | Physical Parameters | Discovery Circumstances ]
ABOUT SSD CREDITS/AWARDS PRIVACY/COPYRIGHT GLOSSARY LINKS
FirstGov
(server date/time)  
NASA Home Page
Site Manager:   Ryan S. Park
Webmaster  Alan B. Chamberlin